Location: Mizzole
(45.4833°N, 11.0500°E)
Time: 09:52:30
(UTC+00:00)

Cosmos 1953 Rocket - Pass Details

Date: 21 October 2019
Orbit: 603 x 636 km, 82.5° (Epoch: 21 November)

Event Time Altitude Azimuth Distance (km) Brightness Sun altitude
Rises 16:57:14 0° 348° (NNW) 2,892 7.1 -7.1°
Reaches altitude 10° 16:59:29 10° 346° (NNW) 1,977 6.2 -7.5°
Maximum altitude 17:03:49 66° 265° (W) 667 4.0 -8.2°
Drops below altitude 10° 17:08:05 10° 183° (S) 1,947 6.2 -9.0°
Sets 17:10:17 0° 180° (S) 2,844 7.0 -9.4°
